Location: Cerezo de Arriba
(41.2389°N, 3.5585°W)
Time: 04:35:57
(UTC+00:00)

Meteor 1-19 Rocket - Pass Details

Date: 19 May 2025
Orbit: 805 x 927 km, 81.2° (Epoch: 23 June)

Event Time Altitude Azimuth Distance (km) Brightness Sun altitude
Exits shadow 22:25:41 53° 129° (SE) 1,131 4.4 -24.1°
Maximum altitude 22:26:33 58° 95° (E) 1,073 4.5 -24.2°
Drops below altitude 10° 22:32:28 10° 18° (NNE) 2,634 7.3 -24.7°
Sets 22:34:59 0° 14° (NNE) 3,574 8.2 -24.9°
